This is the latest recevied weather packets stored in our database for station/object FREPRT-WX. If no packets are shown the sender has not sent any weather packets the latest 10 day(s).
| Time | Temp. | Humidity | Pressure | Rain* | Wind** | Luminosity | Snow |
|---|---|---|---|---|---|---|---|
| 1777752064 | 8.33° C | 39% | 989.3 hPa | 0 mm | - | - | - |
| 1777751138 | 8.33° C | 46% | 989.5 hPa | 0 mm | - | - | - |
| 1777750251 | 7.78° C | 46% | 989.5 hPa | 0 mm | - | - | - |
| 1777749338 | 7.78° C | 46% | 989.5 hPa | 0 mm | - | - | - |
| 1777748464 | 7.78° C | 46% | 989.5 hPa | 0 mm | - | - | - |
| 1777747538 | 7.22° C | 45% | 989.5 hPa | 0 mm | - | - | - |
| 1777746657 | 7.78° C | 43% | 989.5 hPa | 0 mm | - | - | - |
| 1777745737 | 7.78° C | 43% | 989.5 hPa | 0 mm | - | - | - |
| 1777744869 | 7.78° C | 43% | 989.5 hPa | 0 mm | - | - | - |
| 1777743938 | 7.78° C | 46% | 990.2 hPa | 0 mm | - | - | - |
| 1777743055 | 7.22° C | 42% | 990 hPa | 0 mm | - | - | - |
| 1777742138 | 7.78° C | 42% | 990 hPa | 0 mm | - | - | - |
| 1777741262 | 7.78° C | 42% | 990 hPa | 0 mm | - | - | - |
| 1777740338 | 7.22° C | 44% | 989.6 hPa | 0 mm | - | - | - |
| 1777739458 | 7.22° C | 41% | 989.1 hPa | 0 mm | - | - | - |
| 1777738538 | 6.67° C | 41% | 989.1 hPa | 0 mm | - | - | - |
| 1777737667 | 6.67° C | 41% | 989.1 hPa | 0 mm | - | - | - |
| 1777736738 | 6.11° C | 47% | 989.1 hPa | 0 mm | - | - | - |
| 1777735855 | 6.11° C | 50% | 989.3 hPa | 0 mm | - | - | - |
| 1777734938 | 5.56° C | 50% | 989.3 hPa | 0 mm | - | - | - |
| 1777734070 | 5.56° C | 50% | 989.3 hPa | 0 mm | - | - | - |
| 1777733138 | 5° C | 61% | 989.5 hPa | 0 mm | - | - | - |
| 1777732253 | 5° C | 58% | 989.9 hPa | 0 mm | - | - | - |
| 1777731339 | 4.44° C | 58% | 989.9 hPa | 0 mm | - | - | - |
| 1777730472 | 3.89° C | 58% | 989.9 hPa | 0 mm | - | - | - |
* Rain latest hour (hover to see other rain measurements)
** Current wind speed in m/s (hover to see current wind gust speed)